Home   Weather   Jujuy   Past weeks
Flag for Argentina

Past Weather in Jujuy, Jujuy, Argentina — Yesterday and Last 2 Weeks

Now
45 °F

Clear.


Feels Like: 39 °F
Forecast: 74 / 43 °F
Wind: 12 mph from Northwest

Location: Jujuy Aerodrome

Current Time: Aug 22, 2019 at 5:04:20 am

Latest Report: Aug 22, 2019 at 4:00 am


Visibility: 10 mi

Pressure: 30.12 "Hg (21.16 "Hg at 2895m altitude)

Humidity: 81%

Dew Point: 39 °F

Location of JujuyLocation

Past Weather in Jujuy — Graph

°F

Jujuy Temperature Yesterday

Maximum temperature yesterday: 70 °F (at 5:00 pm)
Minimum temperature yesterday: 39 °F (at 5:00 am)
Average temperature yesterday: 55 °F

High & Low Weather Summary for the Past Weeks

 TemperatureHumidityPressure
High84 °F (Aug 17, 5:00 pm)87% (Aug 21, 6:00 am)30.57 "Hg (Aug 21, 6:00 am)
Low32 °F (Aug 10, 7:00 am)13% (Aug 10, 5:00 pm)29.74 "Hg (Aug 17, 4:00 am)
Average56 °F51%30.14 "Hg
* Reported Aug 7 3:00 am — Aug 22 3:00 am, Jujuy. Weather by CustomWeather, © 2019

Note: Actual official high and low records may vary slightly from our data, if they occured in-between our weather recording intervals... More about our weather records

Advertising

Jujuy Weather History for the Previous 24 Hours

Scroll right to see more
 ConditionsComfort  
Time TempWeatherWind HumidityBarometerVisibility
3:00 am
Thu, Aug 22
46 °FClear.7 mph76%30.12 "Hg10 mi
1:00 am48 °FClear.5 mph66%30.15 "Hg10 mi
12:00 am50 °FClear.8 mph62%30.15 "Hg6 mi
11:00 pm
Wed, Aug 21
52 °FClear.5 mph62%30.15 "Hg5 mi
10:00 pm52 °FClear.8 mph58%30.15 "Hg10 mi
9:00 pm54 °FClear.7 mph54%30.15 "Hg10 mi
8:00 pm57 °FClear.3 mph55%30.12 "Hg6 mi
7:00 pm64 °FSunny.5 mph43%30.09 "Hg10 mi
6:00 pm68 °FSunny.8 mph33%30.09 "Hg10 mi
5:00 pm70 °FSunny.8 mph31%30.09 "Hg10 mi
4:00 pm68 °FSunny.10 mph35%30.12 "Hg10 mi
3:00 pm68 °FSunny.10 mph33%30.15 "Hg10 mi
2:00 pm68 °FSunny.10 mph33%30.18 "Hg10 mi
1:00 pm66 °FSunny.10 mph30%30.21 "Hg10 mi
12:00 pm64 °FSunny.9 mph30%30.27 "Hg10 mi
11:00 am59 °FSunny.No wind42%30.30 "Hg10 mi
10:00 am54 °FSunny.6 mph63%30.30 "Hg10 mi
9:00 am50 °FSunny.No wind67%30.27 "Hg10 mi
8:00 am41 °FSunny.7 mph81%30.27 "Hg10 mi
7:00 am41 °FClear.6 mph87%30.24 "Hg10 mi
6:00 am41 °FClear.6 mph87%30.24 "Hg10 mi
5:00 am39 °FClear.3 mph81%30.24 "Hg10 mi
Weather by CustomWeather, © 2019

See weather overview